Regional Weather Roundup
Issued by NWS

Home | Current Version | Previous Version | Graphics & Text | Print | Product List | Glossary On
Versions: 1 2 3 4 5 6 7 8 9 10 11 12 13 14 15 16 17 18 19 20 21 22 23 24 25 26 27 28 29 30 31 32 33 34 35 36 37 38 39 40 41 42 43 44 45 46 47 48 49 50
000
ASUS43 KLOT 251509
RWRIL

ILLINOIS REGIONAL WEATHER ROUNDUP
NATIONAL WEATHER SERVICE CHICAGO/ROMEOVILLE IL
1000 AM CDT THU MAY 25 2017

NOTE: "FAIR" INDICATES FEW OR NO CLOUDS BELOW 12,000 FEET WITH NO
SIGNIFICANT WEATHER AND/OR OBSTRUCTIONS TO VISIBILITY.

* THESE STATIONS ARE NOT UNDER NWS QUALITY CONTROL. THEY ALSO MAY NOT
  REPORT WEATHER SUCH AS PRECIPITATION OR FOG.

ILZ001-002-007-009-015-016-024-251600-
NORTHWEST ILLINOIS

CITY           SKY/WX    TMP DP  RH WIND       PRES   REMARKS
MOLINE         CLOUDY    59  51  75 VRB5      29.69S
STERLING*      CLOUDY    56  52  86 NW10      29.69R
SAVANNA*       CLOUDY    56  51  84 N8        29.69F
$$

ILZ003-004-008-010-011-017-018-251600-
NORTH CENTRAL ILLINOIS

CITY           SKY/WX    TMP DP  RH WIND       PRES   REMARKS
ROCKFORD       CLOUDY    58  52  80 N12       29.67S
FREEPORT*      CLOUDY    55  51  87 N8        29.70R
ROCHELLE*      CLOUDY    56  53  87 N14       29.66F
DE KALB*       CLOUDY    55  52  89 N14       29.66S
PERU*          CLOUDY    56  52  85 N13       29.67R
$$

ILZ005-006-012>014-019>023-251600-
NORTHEAST ILLINOIS

CITY           SKY/WX    TMP DP  RH WIND       PRES   REMARKS
CHICAGO-OHARE  CLOUDY    59  51  75 N12G21    29.62R
CHICAGO-MIDWAY CLOUDY    58  52  80 N14       29.61S
AURORA         CLOUDY    58  53  84 N15       29.65R
LANSING*       DRIZZLE   54  54 100 N10       29.62R
JOLIET*        CLOUDY    61  55  81 N10G16    29.63S
WAUKEGAN       CLOUDY    58  52  80 N10G16    29.62S
DUPAGE AIRPORT CLOUDY    59  54  83 N13       29.62S
KANKAKEE*      CLOUDY    60  53  79 N12G17    29.62S
WHEELING       CLOUDY    58  53  84 N12       29.63S
MORRIS*        CLOUDY    57  53  84 N5        29.63R
ROMEOVILLE*    CLOUDY    59  56  89 N13G18    29.63R
NORTHERLY ISL    N/A     55  50  83 N15         N/A
$$

LMZ740>746-251600-
SOUTHERN LAKE MICHIGAN

STATION/POSITION SKY/WX   TEMP    WIND        PRES    VSBY  WAVE
                          AIR SEA DIR/SP/G                  HT/PER
                          (F)     (DEG/KT/KT) (MB)    (MI)  (FT/S)
SOUTHERN BUOY              46 45  360/ 16/ 17 1001.8          3/ 5
WILMETTE HARBOR            50 51                N/A           4/ 4
HARRISON CRIB              52     340/ 19/ 21   N/A
BURNHAM HARBOR             55     340/  7/ 15   N/A
CALUMET HARBOR             53     330/  9/ 13 1002.6R
BURNS HARBOR               49     330/ 17/ 21 1002.7R
MICHIGAN CITY              48     320/ 20/ 22   N/A
MICHIGAN CITY 6N           48 52  330/ 16/ 21   N/A           5/ 6
ST. JOSEPH                 53 56   10/ 16/ 19 1002.0          5/ 5
$$

ILZ025>027-034>036-040-047-049-050-058-095>099-251600-
WEST-CENTRAL ILLINOIS

CITY           SKY/WX    TMP DP  RH WIND       PRES   REMARKS
QUINCY         MOSUNNY   62  53  72 NW9       29.71S
GALESBURG*     SUNNY     60  53  77 NW9       29.68F
MACOMB*        MOSUNNY   60  55  84 NW9       29.72S
JACKSONVILLE*  SUNNY     61  54  77 NW9       29.69S
PITTSFIELD*    MOSUNNY   62  54  75 W9        29.72S
$$

ILZ028>032-037-038-041>044-048-051>054-059>061-251600-
CENTRAL ILLINOIS

CITY           SKY/WX    TMP DP  RH WIND       PRES   REMARKS
PONTIAC        CLOUDY    58  56  94 NW13      29.65S
BLOOMINGTON    CLOUDY    57  53  86 NW14      29.66S
DECATUR        CLOUDY    57  53  86 NW12      29.66R
PEORIA         CLOUDY    57  52  83 NW9G16    29.69R
LACON*         CLOUDY    56  53  90 NW8       29.67R
LINCOLN*       CLOUDY    58  54  88 NW6       29.68R
SPRINGFIELD    PTSUNNY   61  55  81 NW14      29.69S
TAYLORVILLE    PTSUNNY   60  54  79 NW14      29.68S
$$

ILZ033-039-045-046-055>057-062-063-251600-
EAST-CENTRAL ILLINOIS

CITY           SKY/WX    TMP DP  RH WIND       PRES   REMARKS
CHAMPAIGN      CLOUDY    58  53  84 NW18      29.64R HAZE
RANTOUL*       CLOUDY    59  55  87 N12G18    29.63S
MATTOON        CLOUDY    58  55  90 NW15      29.64R
PARIS*         CLOUDY    57  55  91 NW16G22   29.63R
$$

ILZ079-100>102-251600-
SOUTHWEST ILLINOIS

CITY           SKY/WX    TMP DP  RH WIND       PRES   REMARKS
ALTON          MOSUNNY   63  52  67 NW14      29.71S
BELLEVILLE     MOSUNNY   65  53  65 NW9       29.72S
CAHOKIA*       MOSUNNY   67  51  56 W12       29.72S
SPARTA*        PTSUNNY   63  53  69 NW9       29.73S
$$

ILZ064>066-069>071-074>076-080>082-084>086-088>090-092>094-251600-
SOUTH-CENTRAL ILLINOIS

CITY           SKY/WX    TMP DP  RH WIND       PRES   REMARKS
CARBONDALE     MOSUNNY   66  55  67 NW12      29.72R
CAIRO*         SUNNY     65  54  68 W9        29.74R
EFFINGHAM*     CLOUDY    61  57  85 W12       29.68R
MARION         MOSUNNY   64  55  72 NW9       29.73R
MT. VERNON       N/A     63  54  72 W7        29.69R
CENTRALIA*     MOSUNNY   63  56  79 W15       29.69R
SALEM*         SUNNY     64  55  70 W14       29.68S
METROPOLIS*    MOSUNNY   66  54  65 W10       29.74R
$$

ILZ067-068-072-073-078-083-087-091-251600-
SOUTHEAST ILLINOIS

CITY           SKY/WX    TMP DP  RH WIND       PRES   REMARKS
LAWRENCEVILLE  CLOUDY    62  56  80 NW16      29.63R
FLORA*         PTSUNNY   64  57  76 NW14G20   29.66S
FAIRFIELD*     PTSUNNY   62  54  76 W6        29.66S
HARRISBURG*    MOSUNNY   64  56  74 W15G22    29.70R
ROBINSON*      CLOUDY    59  55  87 NW15      29.64R
CARMI*         PTSUNNY   63  56  78 W15G24    29.66S
$$

ABBREVIATIONS USED IN REMARKS
   TC - TEMPERATURE IN CELSIUS
  WCI - WIND CHILL INDEX
   HX - HEAT INDEX
  VSB - VISIBILITY
$$




USA.gov is the U.S. government's official web portal to all federal, state and local government web resources and services.